Weather History for Cairns, QU

Change the Weather History Date:

Saturday, December 6, 2014

  Actual Average Record
Temperature  
Mean Temperature 81 °F -  
Max Temperature 89 °F 88 °F 91 °F (1997)
Min Temperature 73 °F 74 °F 66 °F (1998)
Cooling Degree Days 16    
Growing Degree Days 31 (Base 50)    
Moisture  
Dew Point 72 °F    
Average Humidity 76    
Maximum Humidity 100    
Minimum Humidity 47    
Precipitation  
Precipitation 3.03 in 0.30 in - ()
Sea Level Pressure  
Sea Level Pressure 29.72 in    
Wind  
Wind Speed 7 mph ()    
Max Wind Speed 20 mph    
Max Gust Speed -    
Visibility 6.1 miles    
Events Rain , Thunderstorm    
Averages and records for this station are not official NWS values.
T = Trace of Precipitation, MM = Missing Value Source: Averaged Metar Reports

Daily Weather History Graph

Daily Weather History Graph

Search for Another Location

Airport:

Trip Planner

Search our weather history database for the weather conditions in past years. The results will help you decide how hot, cold, wet, or windy it might be!

Date:

Astronomy

Dec. 06, 2014 Rise Set
Actual Time 5:35 AM AEST 6:40 PM AEST
Civil Twilight 5:11 AM AEST 7:04 PM AEST
Nautical Twilight 4:43 AM AEST 7:32 PM AEST
Astronomical Twilight 4:14 AM AEST 8:01 PM AEST
Moon 6:25 PM AEST (12/6) 5:11 AM AEST (12/6)
Length of Visible Light 13h 53m
Length of Day
13h 05m
Full, 100% of the Moon is Illuminated
Dec 6
Full
Dec 6
Full
Dec 14
Last Quarter
Dec 22
New
Dec 29
First Quarter

Hourly Weather History & Observations

Time (AEST) Temp. Heat Index Dew Point Humidity Pressure Visibility Wind Dir Wind Speed Gust Speed Precip Events Conditions
12:00 AM 79 °F - 72 °F 74% 29.78 in - Calm Calm - -   Overcast
12:00 AM 78.8 °F - 71.6 °F 78% 29.77 in 6.2 mi Calm Calm - N/A   Mostly Cloudy
12:30 AM 78.8 °F - 71.6 °F 78% 29.74 in 6.2 mi West 4.6 mph - N/A   Mostly Cloudy
1:00 AM 78 °F - 72 °F 77% 29.76 in - West 4.6 mph - -  
1:00 AM 78.8 °F - 71.6 °F 78% 29.74 in 6.2 mi West 4.6 mph - N/A   Mostly Cloudy
1:30 AM 77.0 °F - 71.6 °F 83% 29.74 in 6.2 mi Calm Calm - N/A   Mostly Cloudy
2:00 AM 77.0 °F - 71.6 °F 83% 29.71 in 6.2 mi Calm Calm - N/A   Mostly Cloudy
2:30 AM 77.0 °F - 71.6 °F 83% 29.71 in 6.2 mi NNW 2.3 mph - N/A   Mostly Cloudy
3:00 AM 77 °F - 72 °F 81% 29.73 in - NW 1.2 mph - -   Overcast
3:00 AM 77.0 °F - 71.6 °F 83% 29.71 in 6.2 mi NW 1.2 mph - N/A   Mostly Cloudy
3:30 AM 77.0 °F - 71.6 °F 83% 29.74 in 6.2 mi Calm Calm - N/A   Mostly Cloudy
4:00 AM 77 °F - 72 °F 81% 29.74 in - West 3.5 mph - -  
4:00 AM 77.0 °F - 71.6 °F 83% 29.74 in 6.2 mi West 3.5 mph - N/A   Mostly Cloudy
5:00 AM 77.0 °F - 69.8 °F 78% 29.74 in 6.2 mi Calm Calm - N/A   Mostly Cloudy
5:30 AM 77.0 °F - 71.6 °F 83% 29.74 in 6.2 mi West 5.8 mph - N/A   Mostly Cloudy
6:00 AM 77 °F - 70 °F 73% 29.77 in - West 5.8 mph - -  
6:00 AM 77.0 °F - 69.8 °F 78% 29.77 in 6.2 mi West 5.8 mph - N/A   Mostly Cloudy
6:30 AM 78.8 °F - 69.8 °F 74% 29.77 in 6.2 mi West 5.8 mph - N/A   Mostly Cloudy
7:00 AM 80 °F - 70 °F 64% 29.79 in - West 6.9 mph - -  
7:00 AM 80.6 °F 83.9 °F 69.8 °F 70% 29.77 in 6.2 mi West 6.9 mph - N/A   Mostly Cloudy
7:30 AM 82.4 °F 86.3 °F 69.8 °F 66% 29.77 in 6.2 mi West 6.9 mph - N/A   Mostly Cloudy
8:00 AM 82.4 °F 85.4 °F 68.0 °F 62% 29.77 in 6.2 mi NNW 6.9 mph - N/A   Mostly Cloudy
8:30 AM 84.2 °F 87.3 °F 68.0 °F 58% 29.77 in 6.2 mi North 8.1 mph - N/A   Mostly Cloudy
9:00 AM 86 °F - 69 °F 47% 29.78 in 19 mi North 13.8 mph - -   Partly Cloudy
9:00 AM 86.0 °F 89.4 °F 68.0 °F 55% 29.77 in 6.2 mi North 13.8 mph - N/A   Mostly Cloudy
9:30 AM 86.0 °F 90.4 °F 69.8 °F 58% 29.77 in 6.2 mi North 12.7 mph - N/A   Mostly Cloudy
10:00 AM 87 °F - 70 °F 47% 29.77 in - North 15.0 mph - -  
10:00 AM 87.8 °F 92.6 °F 69.8 °F 55% 29.74 in 6.2 mi North 15.0 mph - N/A   Mostly Cloudy
10:30 AM 86.0 °F 90.4 °F 69.8 °F 58% 29.74 in 6.2 mi North 17.3 mph - N/A   Mostly Cloudy
11:00 AM 86.0 °F 90.4 °F 69.8 °F 58% 29.71 in 6.2 mi North 17.3 mph - N/A   Mostly Cloudy
11:30 AM 87.8 °F 93.8 °F 71.6 °F 58% 29.71 in 6.2 mi North 11.5 mph - N/A   Mostly Cloudy
12:00 PM 89 °F - 72 °F 49% 29.70 in - North 16.1 mph - -  
12:00 PM 89.6 °F 98.2 °F 73.4 °F 59% 29.68 in 6.2 mi North 16.1 mph - N/A   Mostly Cloudy
12:30 PM 84.2 °F 90.9 °F 73.4 °F 70% 29.68 in 6.2 mi North 15.0 mph - N/A   Mostly Cloudy
1:00 PM 85 °F - 73 °F 59% 29.70 in - North 12.7 mph - -  
1:00 PM 84.2 °F 90.9 °F 73.4 °F 70% 29.68 in 6.2 mi North 12.7 mph - N/A   Mostly Cloudy
1:30 PM 86.0 °F 93.4 °F 73.4 °F 66% 29.68 in 6.2 mi North 13.8 mph - N/A   Mostly Cloudy
2:00 PM 84.2 °F 90.9 °F 73.4 °F 70% 29.65 in 6.2 mi North 12.7 mph - N/A   Scattered Clouds
2:30 PM 86.0 °F 93.4 °F 73.4 °F 66% 29.65 in 6.2 mi North 16.1 mph - N/A   Scattered Clouds
3:00 PM 85 °F - 75 °F 64% 29.65 in 16 mi North 12.7 mph - -   Partly Cloudy
3:00 PM 84.2 °F 92.3 °F 75.2 °F 74% 29.65 in 6.2 mi North 12.7 mph - N/A   Scattered Clouds
3:30 PM 84.2 °F 90.9 °F 73.4 °F 70% 29.62 in 6.2 mi North 12.7 mph - N/A   Scattered Clouds
4:00 PM 85 °F - 74 °F 62% 29.62 in - North 12.7 mph - -  
4:00 PM 84.2 °F 90.9 °F 73.4 °F 70% 29.62 in 6.2 mi North 12.7 mph - N/A   Scattered Clouds
4:30 PM 84.2 °F 90.9 °F 73.4 °F 70% 29.59 in 6.2 mi North 13.8 mph - N/A   Scattered Clouds
5:00 PM 84.2 °F 90.9 °F 73.4 °F 70% 29.62 in 6.2 mi North 13.8 mph - N/A   Scattered Clouds
5:30 PM 84.2 °F 90.9 °F 73.4 °F 70% 29.62 in 6.2 mi North 13.8 mph - N/A   Scattered Clouds
6:00 PM 83 °F - 73 °F 66% 29.64 in - North 13.8 mph - -   Overcast
6:00 PM 82.4 °F 88.2 °F 73.4 °F 74% 29.62 in 6.2 mi North 13.8 mph - N/A   Mostly Cloudy
6:30 PM 82.4 °F 88.2 °F 73.4 °F 74% 29.65 in 6.2 mi North 10.4 mph - N/A   Mostly Cloudy
7:00 PM 82 °F - 75 °F 73% 29.69 in - North 13.8 mph - -  
7:00 PM 82.4 °F 89.5 °F 75.2 °F 79% 29.68 in 6.2 mi North 13.8 mph - N/A   Mostly Cloudy
7:23 PM 80.6 °F 86.2 °F 75.2 °F 84% 29.68 in 5.6 mi North 12.7 mph - N/A Rain , Thunderstorm Light Rain Showers
7:30 PM 80.6 °F 86.2 °F 75.2 °F 84% 29.71 in 3.1 mi SE 5.8 mph - N/A Rain , Thunderstorm Light Thunderstorms and Rain
7:34 PM 75.2 °F - 73.4 °F 94% 29.71 in 0.6 mi SSE 19.6 mph - N/A Rain , Thunderstorm Light Thunderstorms and Rain
7:52 PM 73.4 °F - 73.4 °F 100% 29.74 in 0.6 mi SSE 18.4 mph - N/A Rain , Thunderstorm Heavy Thunderstorms and Rain
8:00 PM 73.4 °F - 73.4 °F 100% 29.74 in 0.6 mi South 8.1 mph - N/A Rain , Thunderstorm Heavy Thunderstorms and Rain
8:13 PM 73.4 °F - 73.4 °F 100% 29.74 in 4.3 mi South 4.6 mph - N/A Rain , Thunderstorm Light Thunderstorms and Rain
8:30 PM 73.4 °F - 73.4 °F 100% 29.74 in 5.6 mi East 8.1 mph - N/A Rain , Thunderstorm Light Thunderstorms and Rain
9:00 PM 73 °F - 73 °F 99% 29.74 in - SSE 13.8 mph - -   Overcast
9:00 PM 73.4 °F - 73.4 °F 100% 29.74 in 4.3 mi SSE 13.8 mph - N/A Rain , Thunderstorm Rain Showers
9:19 PM 73.4 °F - 73.4 °F 100% 29.74 in 5.6 mi SSE 8.1 mph - N/A Rain , Thunderstorm Light Rain Showers
9:30 PM 73.4 °F - 73.4 °F 100% 29.77 in 5.6 mi WSW 3.5 mph - N/A Rain , Thunderstorm Light Rain Showers
10:00 PM 74 °F - 74 °F 99% 29.80 in - WSW 2.3 mph - -  
10:00 PM 73.4 °F - 73.4 °F 100% 29.80 in 5.6 mi WSW 2.3 mph - N/A Rain Light Rain
10:30 PM 75.2 °F - 73.4 °F 94% 29.80 in 5.6 mi SSE 5.8 mph - N/A Rain Light Rain
11:00 PM 75.2 °F - 73.4 °F 94% 29.80 in 5.6 mi SE 9.2 mph - N/A Rain Rain
11:30 PM 73.4 °F - 73.4 °F 100% 29.83 in 4.3 mi SSE 11.5 mph - N/A Rain Rain